This is the latest recevied weather packets stored in our database for station/object K5YNC. If no packets are shown the sender has not sent any weather packets the latest 10 day(s).
| Time | Temp. | Humidity | Pressure | Rain* | Wind** | Luminosity | Snow |
|---|---|---|---|---|---|---|---|
| 1777846701 | 26.67° C | 32% | 1017.2 hPa | 0 mm | - | 52 W/m² | - |
| 1777846400 | 26.67° C | 35% | 1017.4 hPa | 0 mm | - | 53 W/m² | - |
| 1777846095 | 26.67° C | 32% | 1017.4 hPa | 0 mm | - | 52 W/m² | - |
| 1777845792 | 27.22° C | 34% | 1017.2 hPa | 0 mm | - | 57 W/m² | - |
| 1777845489 | 26.67° C | 34% | 1017.3 hPa | 0 mm | - | 282 W/m² | - |
| 1777845186 | 26.67° C | 33% | 1017.4 hPa | 0 mm | - | 491 W/m² | - |
| 1777844884 | 26.67° C | 32% | 1017.5 hPa | 0 mm | - | 416 W/m² | - |
| 1777844580 | 26.67° C | 33% | 1017.5 hPa | 0 mm | - | 521 W/m² | - |
| 1777844278 | 26.67° C | 35% | 1017.6 hPa | 0 mm | - | 537 W/m² | - |
| 1777843975 | 27.22° C | 34% | 1017.8 hPa | 0 mm | - | 557 W/m² | - |
| 1777843672 | 26.67° C | 34% | 1017.9 hPa | 0 mm | - | 577 W/m² | - |
| 1777843370 | 26.67° C | 34% | 1017.8 hPa | 0 mm | - | 130 W/m² | - |
| 1777843067 | 26.67° C | 35% | 1018 hPa | 0 mm | - | 108 W/m² | - |
| 1777842763 | 27.22° C | 35% | 1018.1 hPa | 0 mm | - | 617 W/m² | - |
| 1777842458 | 27.78° C | 34% | 1017.9 hPa | 0 mm | - | 624 W/m² | - |
| 1777842157 | 27.22° C | 36% | 1018.3 hPa | 0 mm | - | 640 W/m² | - |
| 1777841851 | 27.22° C | 34% | 1018.3 hPa | 0 mm | - | 642 W/m² | - |
| 1777841548 | 27.78° C | 35% | 1018.4 hPa | 0 mm | - | 653 W/m² | - |
| 1777841244 | 26.67° C | 35% | 1018.4 hPa | 0 mm | - | 667 W/m² | - |
| 1777840942 | 27.22° C | 34% | 1018.5 hPa | 0 mm | - | 186 W/m² | - |
| 1777840639 | 27.22° C | 35% | 1018.7 hPa | 0 mm | - | 685 W/m² | - |
| 1777840337 | 27.78° C | 37% | 1018.8 hPa | 0 mm | - | 694 W/m² | - |
| 1777840034 | 27.22° C | 35% | 1018.9 hPa | 0 mm | - | 705 W/m² | - |
| 1777839732 | 27.22° C | 35% | 1018.9 hPa | 0 mm | - | 710 W/m² | - |
| 1777839429 | 27.22° C | 35% | 1019 hPa | 0 mm | - | 724 W/m² | - |
* Rain latest hour (hover to see other rain measurements)
** Current wind speed in m/s (hover to see current wind gust speed)